DELTA 1 DEB, 2518

Orbit data source: Space-Track

DELTA 1 DEB, 2518 is space debris in SSO originally from a launch on Sun, 02 Oct 1966 UTC launched from the Air Force Western Test Range (AFWTR). Debris objects in space refer to the collection of defunct objects orbiting the Earth. Examples of debris include non-operational satellites, rocket bodies, and fragments generated from explosions, collisions, or faulty payload assembly.

Loading next visibility...
DELTA 1 DEB details
Identifier
2518, 1966-087C
Orbit
SSO
Last TLE update3 days ago
Origin
Flag of USGSFC (US)
ManufacturerUnknown
MissionSpacecraft
Bus & MotorUnknown
Mass1 kg wet, 1 kg dry
Launch date (UTC)
1966-10-02 (58 years ago)
Launch vehicleUnknown
Launch site
Air Force Western Test Range (AFWTR)
Object type
Payload
Rocket body
Debris
Shape & HBRCyl + 1 Cable, 3.5 m
Radar Cross Section3.500 m², Small (<0.1 m²)

Expand to show TLE details & history

TLE from 3 days ago
0 DELTA 1 DEB
1 02518U 66087C   24353.94631535 -.00000008  00000-0  21592-3 0  9997
2 02518 100.8102 128.7433 0081121 191.1392 290.9603 12.42685658639696
Epoch: 2024-12-18T22:42Z
Definitive object data (Epoch: 2024-12-18T22:42:41.646Z)
Latitude57.22554°
Longitude-102.79849°
Altitude1,482.279 km
Speed7.138 km/s
True Right ascension21h 43m 37s
True Declination57° 04' 60"
Sunlit
Object was in daylight at TLE epoch
Visualization TLE readout
Latitude56.13793°
Longitude-100.56574°
Altitude1,474.301 km
Speed7.145 km/s
Apparent Right ascension19h 17m 17s
Apparent Declination17° 59' 34"
Sunlit
Object is in daylight
Visualization observer readout
Local Sidereal Time05:00:48
Azimuth324.289° NNW
Elevation-23.935°
Doppler factor1
Orbital elements
Apogee altitude1,556.592 km
Perigee altitude1,428.893 km
Semi-major axis7,870.879 km
Eccentricity0.0081121
Inclination100.8102°
RAAN128.7433°
Arg. of periapsis191.1392°
True anomaly290.08911°
Mean anomaly290.9603°
Eccentric anomaly290.52502°
Mean motion3.1082 °/min
BSTAR0.00021592
Orbital period115.82 mins
Loading maneuver chart data...
Loading historical data...
Loading historical data...
Loading historical data...
Loading historical data...
Loading historical data...
Loading historical data...
Loading historical data...

DELTA 1 DEB Visibility forecast

Observer location: undefined°, undefined

Span
Click to sort rows by Start time (UTC) header in descending order
Start Az.
Max El. time (UTC)
Max El. Az.
Max El.
End time (UTC)
End Az.
12 mins2024-12-22 07:22:08.282Z105.283° ESE2024-12-22 07:28:08.282Z58.07° ENE24.345°2024-12-22 07:34:08.282Z8.635° NNE
15 mins2024-12-22 09:14:08.282Z171.193° S2024-12-22 09:21:08.282Z242.433° WSW43.947°2024-12-22 09:29:08.282Z339.751° N
6 mins2024-12-22 11:14:08.282Z255.966° W2024-12-22 11:16:08.282Z270.317° WNW13.126°2024-12-22 11:20:08.282Z298.464° NW
14 mins2024-12-22 21:23:08.282Z31.933° NE2024-12-22 21:29:08.282Z89.939° E35.967°2024-12-22 21:37:08.282Z170.917° S
13 mins2024-12-22 23:17:08.282Z357.717° N2024-12-22 23:23:08.282Z301.149° NW32.188°2024-12-22 23:30:08.282Z235.906° WSW
|